USA 271

Last updated on Mon Sep 07 2026 00:03:00 GMT+0000 (Coordinated Universal Time)

1 41745U 16052B 26249.39474801 -.00000001 00000+0 00000+0 0 9994 2 41745 4.3727 76.1835 0002345 169.6622 326.5493 0.99059000 28736
UTC large
Height (km)
Speed (km/s)
/
Latitude / Longitude
Inclination (degrees)
Orbital Period (minutes)
Azimuth
Elevation
Range (km)
Doppler Factor

Next 0 passes for location: London (51.5072 / 0.1276)

No passes found over London.
USA 271